Regional Weather Roundup
Issued by NWS

Home | Current Version | Previous Version | Text Only | Print | Product List | Glossary On
Versions: 1 2 3 4 5 6 7 8 9 10 11 12 13 14 15 16 17 18 19 20 21 22 23 24 25 26 27 28 29 30 31 32 33 34 35 36 37 38 39 40 41 42 43 44 45 46 47 48 49 50
379
ASUS43 KDTX 220901
RWRMI
MICHIGAN HOURLY REGIONAL WEATHER ROUNDUP
NATIONAL WEATHER SERVICE DETROIT/PONTIAC MI
400 AM EST THU FEB 22 2018

NOTE: "FAIR" INDICATES FEW OR NO CLOUDS BELOW 12,000 FEET WITH NO
SIGNIFICANT WEATHER AND/OR OBSTRUCTION TO VISIBILITY.

MIZ047>049-052>055-059>063-066>070-074>076-081>083-221000-
SOUTHEAST LOWER MICHIGAN

CITY           SKY/WX    TMP DP  RH WIND       PRES   REMARKS
ADRIAN         CLOUDY    30  27  88 E10       30.58S WCI  21
ALMA           FAIR      30  27  91 NE5       30.61S WCI  25
ANN ARBOR      FAIR      30  25  81 NE9       30.57F WCI  22
BAD AXE        FAIR      27  23  85 E5        30.63F WCI  21
CARO           FAIR      27  24  87 E6        30.61F WCI  21
DETROIT CITY   FAIR      29  23  78 NE12      30.60F WCI  19
DETROIT        CLOUDY    31  25  78 NE12      30.58F WCI  22
FLINT          MOCLDY    28  25  88 E13       30.60F WCI  17
GROSSE ILE     CLOUDY    30  25  80 NE14G21   30.57F WCI  20
HILLSDALE      FAIR      32  28  86 E9        30.52F WCI  24
HOWELL         FAIR      30  28  92 E5        30.57F WCI  25

CITY           SKY/WX    TMP DP  RH WIND       PRES   REMARKS
JACKSON        FAIR      32  28  85 NE9       30.55F WCI  24
LAMBERTVILLE   CLOUDY    31  27  84 E7G16     30.57F WCI  24
LANSING        FAIR      30  27  88 E7        30.59S WCI  23
LAPEER         CLOUDY    29  25  86 E5        30.60F WCI  24
MASON          FAIR      32  27  81 E6        30.57F WCI  26
MONROE         CLOUDY    31  25  79 NE10      30.57F WCI  22
MT. CLEMENS    MOCLDY    29  29  99 NE12      30.59F WCI  19
PONTIAC        MOCLDY    28  25  88 E12       30.57F WCI  18
PORT HOPE        N/A     29  22  75 NE12      30.63F WCI  19
PORT HURON     FAIR      28  21  74 NE8       30.62F WCI  20
TRI CITIES     MOCLDY    29  25  85 E8        30.62F WCI  21
MIDLAND        CLOUDY    29  27  90 NE6       30.62F WCI  23
TROY           FAIR      30  26  84 NE10      30.61F WCI  21
SAGINAW HB     FAIR      28  27  93 E7        30.62F WCI  21
$$
MIZ043>046-050>051-056>058-064>065-071>073-077>080-221000-
SOUTHWEST LOWER MICHIGAN

CITY           SKY/WX    TMP DP  RH WIND       PRES   REMARKS
BATTLE CREEK   FAIR      31  27  85 NE7       30.54F WCI  24
BENTON HARBOR  FAIR      30  24  78 VRB5      30.56F WCI  25
BIG RAPIDS     FAIR      25  18  77 NE3       30.60F
COLDWATER      CLOUDY    33  33  99 E9        30.53S WCI  25
HOLLAND        FAIR      29  21  72 NE7       30.58F WCI  22
GRAND RAPIDS   FAIR      29  23  78 NE7       30.58F WCI  22
IONIA          FAIR      30  24  76 NE8       30.58S WCI  23
KALAMAZOO      FAIR      32  26  78 NE7       30.54F WCI  26
LUDINGTON      FAIR      23  19  83 CALM      30.63F
MARSHALL       FAIR      31  29  90 NE6       30.54F WCI  26
MOUNT PLEASANT CLOUDY    29  25  85 NE6       30.61F WCI  23
MUSKEGON       FAIR      26  19  74 NE7       30.60F WCI  18
SOUTH HAVEN    FAIR      30  25  80 NE6       30.57S WCI  24
$$
MIZ016>042-221000-
NORTHERN LOWER MICHIGAN

CITY           SKY/WX    TMP DP  RH WIND       PRES   REMARKS
ALPENA         FAIR      20  17  88 CALM      30.68S
BEAVER ISLAND  FAIR      14  12  90 CALM      30.66F
BELLAIRE       FAIR      19  18  99 CALM      30.68S
CADILLAC       FAIR      19  18  93 NE5       30.59F WCI  13
CHARLEVOIX     FAIR      19  18  95 E3        30.70S
FRANKFORT      FAIR      23  17  79 CALM      30.66R
GAYLORD        FAIR      18  17  96 CALM      30.62S
GRAYLING       FAIR      19  17  92 CALM      30.63R
HARBOR SPRINGS FAIR      15  13  92 NE5       30.67S WCI   7
HOUGHTON LAKE  FAIR      21  17  84 NE5       30.63R WCI  15
MANISTEE       FAIR      20  18  92 E5        30.65S WCI  13
OSCODA         FAIR      23  18  83 N3        30.66S
PELLSTON       FAIR      12   9  87 CALM      30.68S
ROGERS CITY    FAIR      19  16  89 CALM      30.68F
TRAVERSE CITY  FAIR      22  17  81 SE3       30.66S
$$
MIZ007>008-015-221000-
EASTERN UPPER MICHIGAN

CITY           SKY/WX    TMP DP  RH WIND       PRES   REMARKS
KINROSS        FAIR       9   7  92 CALM      30.66F
MACKINAC ISLAN FAIR      15  14  92 CALM      30.67R
NEWBERRY       FAIR       3   2  96 CALM      30.64S
S. S. MARIE    FAIR      10   6  84 CALM      30.66F
MUNISING         N/A      2   0  91 S6        30.65F WCI  -9
$$
MIZ004>006-011>014-085-221000-
CENTRAL UPPER MICHIGAN

CITY           SKY/WX    TMP DP  RH WIND       PRES   REMARKS
MANISTIQUE     FAIR       6   4  94 CALM      30.65F
ESCANABA       FAIR       5   2  87 N3        30.65F
MENOMINEE      FAIR      15  11  83 CALM      30.66F
$$
MIZ001>003-009>011-084-221000-
WESTERN UPPER MICHIGAN

CITY           SKY/WX    TMP DP  RH WIND       PRES   REMARKS
IRON MOUNTAIN  FAIR       2  -2  83 CALM      30.59F
HOUGHTON       FAIR       5  -3  69 CALM      30.60F
COPPER HARBOR    N/A     14   6  70 S5        30.64S WCI   6
IRONWOOD       FAIR      -1  -3  91 E5        30.60F WCI -11
$$

ABBREVIATIONS USED IN REMARKS
   TC - TEMPERATURE IN CELSIUS
  WCI - WIND CHILL INDEX
   HX - HEAT INDEX
  VSB - VISIBILITY





USA.gov is the U.S. government's official web portal to all federal, state and local government web resources and services.